User: anonymous   Login
Location: Heidgraben
(53.7081°N, 9.6576°E)
Time: 08:58:37
(UTC+00:00)
Language:

Helios 1B rocket - Orbit

View from above orbital plane
View from above orbital plane
View from above satellite
View from above satellite

Ground track
Ground track

The orbit data is extracted from the following two-line orbital elements,

1 25979U 99064C   20272.84864878 +.00000450 +00000-0 +45704-4 0  9999
2 25979 098.1431 195.0594 0005606 320.8849 039.1965 14.96046939129482
Epoch (UTC): 28 September 2020 20:22:03
Eccentricity: 0.0005606
inclination: 98.1431°
perigee height: 575 km
apogee height: 583 km
right ascension of ascending node: 195.0594°
argument of perigee: 320.8849°
revolutions per day: 14.96046939
mean anomaly at epoch: 39.1965°
orbit number at epoch: 12948

The dashed part of the orbit path shows where the satellite is in the earth's shadow,  

DLR